User: anonymous   Login
Location: Kitt Peak
(31.9514°N, 111.6156°W)
Time: 14:20:39
(UTC-07:00)
Language:

ISS - Orbit

View from above orbital plane
View from above orbital plane
View from above satellite
View from above satellite

Ground track
Ground track

The orbit data is extracted from the following two-line orbital elements,

1 25544U 98067A   22023.57789271  .00005616  00000-0  10777-3 0  9998
2 25544  51.6448 332.7225 0006762  54.1897 117.1334 15.49600644322757
Epoch (UTC): 23 January 2022 13:52:09
Eccentricity: 0.0006762
inclination: 51.6448°
perigee height: 413 km
apogee height: 422 km
right ascension of ascending node: 332.7225°
argument of perigee: 54.1897°
revolutions per day: 15.49600644
mean anomaly at epoch: 117.1334°
orbit number at epoch: 32275

The dashed part of the orbit path shows where the satellite is in the earth's shadow,  

DLR